Probability
0 0 0 0 0 0 0 0 0 0 0 0 1 2 4 5 9 14 18 21 21 18 17 20 24 27 27 24 23 25 25 22 22 24 21 17 13 8 6 6 5 4 4 4
0 0 0 0 0 0 0 0 0 0 1 1 1 3 3 5 9 15 19 20 20 19 19 21 23 25 26 25 24 25 25 23 22 22 20 17 14 11 8 7 6 5 6 7
0 0 0 0 0 0 0 0 0 1 2 2 2 3 2 4 8 13 17 20 21 21 22 23 23 23 25 26 26 28 28 26 23 22 21 19 17 15 12 10 9 9 10 11
0 0 0 0 0 0 0 0 0 1 2 1 1 2 2 3 6 9 13 18 21 21 21 22 20 20 23 26 29 32 32 29 27 25 24 22 19 16 14 13 12 12 12 12
0 0 0 0 0 0 0 0 0 1 1 0 1 1 1 2 4 6 10 14 16 17 19 18 16 17 21 26 31 34 33 31 29 27 26 24 19 15 14 14 13 13 13 13
0 0 0 0 0 0 1 0 0 0 0 0 0 0 0 1 2 5 9 11 13 14 16 16 15 17 21 26 32 34 32 31 31 29 27 24 20 17 16 15 14 14 15 15
0 0 0 0 0 0 0 0 0 0 0 0 0 0 0 0 1 4 8 11 12 14 16 18 19 20 22 26 30 31 29 30 31 31 29 26 23 21 18 16 15 14 15 15
0 0 0 0 0 0 0 0 0 0 0 0 0 0 0 1 2 6 10 12 13 15 19 22 23 23 23 25 26 26 25 27 30 30 28 26 24 22 19 17 16 15 13 12
0 0 0 0 0 0 0 0 0 0 0 0 0 0 1 2 5 9 12 14 15 17 20 24 26 25 23 22 21 21 22 23 25 25 24 23 22 20 18 16 16 14 11 9
0 0 0 0 0 0 0 0 0 0 0 0 0 0 1 3 7 11 13 15 17 18 21 24 26 24 21 19 19 20 21 21 20 20 21 21 19 17 15 15 13 11 9 8
0 0 0 0 0 0 0 0 0 0 0 0 0 0 0 3 7 9 11 13 17 20 23 25 25 22 20 18 18 20 22 21 18 18 19 18 17 14 12 12 11 9 8 8
0 0 0 0 0 0 0 0 0 0 0 0 0 0 1 3 6 7 8 11 17 22 25 25 22 20 20 18 17 18 20 20 18 18 18 16 14 12 10 9 8 7 7 8
0 0 0 0 0 0 0 0 0 0 0 0 0 0 1 4 6 6 7 10 16 22 25 24 20 20 21 20 18 17 18 18 18 18 17 14 11 10 9 9 8 7 6 6
0 0 0 0 0 0 0 0 0 0 0 0 0 0 2 4 6 7 7 10 15 19 22 21 19 19 21 21 20 19 18 18 18 18 15 12 10 10 10 10 9 6 4 3
0 0 0 0 0 0 0 0 0 0 0 0 0 0 2 4 6 7 8 10 14 17 18 19 19 18 19 21 22 20 19 18 19 17 13 10 10 10 10 9 8 6 3 2
0 0 0 0 0 0 0 0 0 1 1 0 0 1 4 7 8 8 9 12 13 15 17 18 19 18 17 19 20 20 19 18 18 15 12 10 10 10 10 10 8 6 4 3
0 0 0 0 0 0 0 1 1 2 2 1 1 3 6 9 10 10 12 13 13 13 16 18 19 17 15 16 18 18 19 18 16 14 12 11 11 11 11 11 9 7 5 5
0 0 0 0 0 0 1 2 3 3 3 3 3 6 9 11 12 12 13 13 12 14 17 20 19 17 15 14 15 15 15 14 13 12 12 12 13 13 12 11 9 7 6 6
0 0 0 0 0 0 1 2 3 3 3 3 5 8 12 14 14 13 12 11 11 13 16 19 18 16 14 13 12 12 12 11 10 11 12 14 15 14 12 9 7 7 6 6
0 0 0 0 0 0 1 2 3 3 2 3 5 9 12 14 15 12 9 8 8 9 13 16 16 14 14 12 11 10 10 9 9 10 12 14 15 14 11 8 7 6 6 6
0 0 0 0 0 0 1 2 2 1 1 2 5 9 11 12 12 9 6 5 5 8 11 14 15 14 12 11 9 9 9 8 8 10 12 12 13 13 10 8 7 6 6 6
0 0 0 0 0 0 1 3 2 1 1 3 5 7 8 9 9 7 5 5 6 9 12 14 15 14 11 9 8 8 8 7 7 9 10 11 11 11 9 7 7 6 6 6
0 0 0 0 0 0 1 3 2 2 3 4 5 6 7 9 9 7 6 6 8 11 13 13 14 12 9 8 8 8 7 6 6 7 8 9 9 8 7 7 6 6 6 6
0 0 0 0 0 1 3 4 4 4 5 6 6 6 7 9 8 7 7 8 9 11 13 13 12 10 8 7 8 8 7 6 5 6 7 7 7 7 6 6 6 6 6 6
0 0 0 0 0 2 4 5 5 5 7 9 8 7 8 9 8 9 11 12 11 11 12 12 11 9 7 7 7 7 7 6 5 4 5 6 6 6 6 5 5 5 6 6
0 0 0 0 0 2 4 4 4 5 7 9 9 8 8 7 8 11 12 13 12 11 12 11 11 9 7 6 6 6 6 6 4 4 4 5 6 6 6 6 5 5 4 4
Wind_Speed
2 3 4 7 7 7 4 2 4 7 5 1 3 4 6 5 6 7 8 9 9 9 6 6 7 8 7 6 6 6 6 5 4 3 3 2 1 1 1 1 2 2 2 2
2 5 10 6 4 3 3 3 5 6 4 1 2 3 4 3 6 8 10 9 9 7 6 5 5 6 6 7 6 6 6 5 4 3 3 2 2 1 1 1 1 1 2 2
7 8 6 5 5 5 6 6 6 5 4 3 3 4 3 2 2 4 6 8 8 10 10 9 8 7 7 7 7 7 6 5 4 4 3 2 2 1 1 1 0 0 1 2
6 8 5 6 7 6 7 9 8 5 1 2 2 2 6 2 2 3 5 7 9 9 9 8 8 7 7 7 6 6 6 6 5 5 4 5 3 2 2 2 1 0 1 1
6 6 7 8 10 9 9 9 6 4 3 0 1 2 7 1 3 5 5 7 9 9 10 9 8 8 6 6 6 5 5 5 4 5 5 4 3 2 1 1 2 1 0 1
7 5 6 9 8 8 6 0 3 4 4 1 4 3 6 4 7 6 5 6 6 8 8 8 7 7 6 6 5 5 6 5 4 5 4 5 4 3 3 2 2 1 0 1
6 7 5 3 2 2 4 5 3 4 3 5 3 3 7 7 6 7 8 7 6 7 8 8 8 7 7 6 6 5 6 5 5 5 4 4 4 4 4 3 3 2 1 1
3 7 5 3 6 5 5 10 9 5 5 5 1 4 6 4 3 4 6 6 5 6 7 8 7 7 8 8 7 6 6 5 4 4 4 4 4 3 2 3 3 3 2 2
4 6 5 4 4 7 4 3 8 8 2 1 3 3 4 2 1 3 4 5 6 7 8 8 7 6 7 8 7 7 6 4 4 4 3 3 3 3 3 3 2 2 2 2
6 3 6 4 1 0 6 7 6 6 4 2 3 3 4 4 3 3 4 5 6 7 7 7 7 6 6 6 6 6 6 6 4 4 3 3 3 3 3 3 2 2 1 1
4 4 6 2 2 4 1 3 5 5 6 5 3 6 6 8 7 6 5 6 7 8 8 7 6 6 6 6 5 5 5 5 4 3 3 4 3 3 3 3 2 2 2 2
3 5 4 6 5 4 5 5 7 5 3 4 4 7 4 5 5 6 6 5 6 7 7 7 6 5 5 6 5 5 5 5 4 3 3 4 3 3 2 2 2 2 2 2
3 5 1 6 6 3 1 2 4 6 4 3 3 6 2 1 2 4 5 5 5 6 6 6 5 5 6 6 5 5 4 4 4 4 4 3 3 3 2 2 2 2 2 2
5 4 6 8 7 4 2 2 2 5 4 3 5 5 4 2 3 3 4 5 6 6 7 6 5 4 4 5 5 5 4 4 4 4 4 3 3 3 2 2 2 2 2 2
5 2 2 4 4 3 3 3 2 3 6 7 7 7 8 7 7 6 5 5 6 6 6 6 6 5 4 3 3 4 4 4 4 4 4 3 2 2 2 2 2 2 2 2
4 2 1 3 2 2 2 3 2 2 3 4 4 4 6 5 4 5 5 6 6 6 6 6 6 6 5 5 4 3 3 3 4 4 4 3 2 2 2 2 2 2 2 2
2 3 3 3 4 2 3 4 4 3 3 5 6 7 5 5 6 6 6 5 6 6 5 7 7 7 7 5 5 5 4 4 4 4 4 3 3 2 2 3 3 3 2 2
5 4 3 0 3 3 7 3 2 3 0 1 3 4 6 7 5 4 6 6 5 6 6 6 6 6 6 5 4 4 4 4 4 3 3 3 3 3 3 3 3 2 2 2
6 7 3 2 1 4 5 4 1 2 1 1 3 3 4 5 5 2 1 5 5 4 5 4 5 6 5 5 5 4 4 4 4 3 4 4 3 3 4 4 3 3 2 2
3 5 5 3 2 4 5 6 4 3 1 3 2 5 5 5 3 2 2 4 4 3 3 3 4 4 4 4 5 5 4 4 4 4 4 3 3 3 4 4 3 3 2 3
2 2 3 3 3 5 6 6 3 3 5 3 2 5 5 4 5 5 4 4 4 5 4 4 5 4 4 5 5 4 3 3 3 3 2 2 3 3 3 3 3 3 2 2
3 2 2 3 2 6 5 3 1 5 4 1 2 4 4 4 5 5 4 4 4 4 4 5 5 4 4 5 6 4 3 3 2 2 2 2 2 2 2 2 2 2 3 3
2 4 4 5 6 5 2 1 2 3 2 2 3 3 5 6 5 4 3 3 3 4 4 4 4 4 3 4 5 5 4 2 2 2 2 1 1 1 2 3 3 2 2 2
3 1 2 0 3 3 1 1 1 1 2 2 3 5 6 5 4 3 3 2 2 3 4 3 4 4 2 2 3 4 3 2 2 2 2 2 2 1 1 1 2 2 3 3
2 1 1 1 3 3 3 1 0 2 3 4 3 4 6 6 4 3 3 3 2 3 3 4 4 3 2 2 2 2 2 3 2 1 1 2 2 2 2 1 2 3 3 5
3 3 3 4 5 3 3 2 0 2 3 3 3 3 4 5 4 3 2 2 2 2 3 3 3 2 2 3 2 1 2 2 2 1 1 1 2 2 2 1 2 3 3 5
Wind_Direction
237 107 216 225 205 199 206 231 262 269 271 171 210 224 233 200 173 171 166 164 167 174 182 173 159 153 151 148 145 151 146 153 141 135 141 139 152 145 118 152 148 146 143 128
21 241 229 223 219 211 220 248 276 287 297 137 200 248 249 205 192 183 172 172 170 162 156 160 154 152 157 156 154 151 155 155 154 154 154 154 151 156 163 143 106 135 137 142
203 235 222 209 227 228 247 220 231 236 314 11 61 338 280 264 199 181 171 168 165 169 167 168 164 165 157 163 166 162 161 155 157 149 126 110 84 57 59 61 111 118 136 125
237 241 228 213 225 209 246 233 214 212 143 294 102 264 282 244 270 206 175 172 180 178 170 169 167 170 165 168 164 156 157 158 159 151 146 145 156 171 192 185 170 143 120 124
243 228 212 216 227 206 223 230 215 207 161 291 358 133 281 280 228 239 201 185 185 178 169 165 168 170 160 151 146 151 148 153 158 158 158 154 156 174 163 140 133 139 87 110
250 252 212 216 230 213 215 272 32 45 76 267 237 170 268 237 211 207 197 179 171 164 164 163 164 151 145 139 144 149 151 162 167 162 159 159 159 153 140 141 145 142 92 60
295 288 263 225 236 262 139 106 49 9 15 249 235 179 245 240 201 183 183 185 173 161 156 152 152 153 154 153 154 149 153 161 165 162 166 168 164 152 153 161 163 152 134 111
228 278 261 216 189 197 186 143 155 180 210 269 295 211 251 246 196 174 170 166 159 158 156 155 157 160 164 160 158 151 157 160 160 164 173 170 158 150 157 167 158 156 161 173
192 255 269 239 200 166 160 165 164 139 171 228 271 274 311 341 134 139 141 147 164 165 157 155 150 153 157 158 160 158 156 149 155 160 159 159 157 154 154 151 145 155 164 155
171 246 279 278 14 161 163 154 101 114 150 238 268 244 228 226 199 160 156 156 168 158 151 150 153 157 155 154 158 155 153 153 151 152 149 144 151 157 158 147 151 155 161 154
162 188 285 327 191 204 117 109 114 127 151 163 228 261 224 200 189 170 165 159 159 158 158 157 158 161 153 144 141 144 146 141 142 146 138 146 156 154 148 153 165 170 169 161
175 147 242 255 246 191 167 168 144 149 209 170 175 258 267 179 172 154 149 155 159 157 157 153 157 154 147 145 144 141 147 150 155 147 137 146 152 150 152 160 168 159 165 172
143 119 83 326 331 353 125 166 147 137 128 155 174 259 307 123 122 142 144 144 144 140 140 142 146 150 153 152 150 150 152 154 151 139 137 135 143 147 162 180 171 158 157 163
114 121 162 199 221 229 260 260 149 121 148 197 206 222 265 215 167 171 161 153 148 146 146 144 144 152 158 156 152 152 153 151 150 144 147 150 162 163 163 158 150 158 159 156
86 133 196 227 237 226 234 238 203 166 182 185 212 199 218 211 187 181 172 156 143 148 156 160 157 155 151 148 153 153 150 151 154 152 157 173 172 159 150 150 154 153 143 147
64 107 33 320 293 274 269 242 230 217 194 185 172 217 218 205 171 159 165 157 155 164 172 167 158 154 162 164 167 162 154 160 156 158 163 163 154 151 160 167 161 141 140 151
70 96 71 294 308 0 262 233 212 221 221 178 197 216 189 160 167 171 161 155 166 182 173 168 166 169 170 168 160 169 171 162 156 160 161 161 164 167 177 164 149 158 164 155
143 111 124 241 15 247 248 268 157 138 86 207 168 173 170 170 170 159 152 152 158 167 168 172 167 167 169 163 153 157 151 154 157 160 166 175 176 179 174 161 169 178 173 173
154 142 132 129 203 278 303 326 333 155 272 302 150 137 123 119 87 42 137 142 151 162 171 177 176 168 164 158 152 145 153 155 161 176 190 194 189 185 180 179 188 189 179 195
87 114 126 139 168 231 259 290 293 110 268 296 142 137 140 110 113 227 194 141 138 153 167 158 159 143 148 155 143 141 158 161 180 192 200 196 188 187 187 191 194 190 186 203
45 63 139 164 202 255 268 299 9 133 233 271 162 152 148 157 184 185 158 137 151 159 153 150 148 149 160 152 138 145 154 179 197 192 189 192 198 200 198 194 196 189 186 191
170 156 179 150 181 253 292 9 115 215 236 209 143 138 128 127 131 141 145 144 140 137 138 142 145 156 157 145 139 148 177 199 173 157 167 191 203 205 185 179 198 191 180 187
174 183 181 177 207 237 274 193 220 178 149 134 139 131 124 122 128 138 136 139 143 148 151 147 150 150 150 151 148 163 197 187 155 153 177 196 219 225 191 184 191 192 186 193
308 22 103 102 284 286 309 44 30 88 121 119 127 128 122 121 119 119 136 137 130 139 147 145 140 139 153 157 153 162 168 154 155 175 198 201 200 222 215 203 194 191 199 206
260 350 63 263 285 319 352 3 53 71 76 76 95 117 121 118 120 130 133 131 136 139 144 141 145 155 165 152 144 149 158 154 164 196 215 218 205 202 216 239 237 222 222 212
221 182 175 226 235 215 253 285 170 97 85 99 109 94 103 119 126 125 131 136 140 137 136 133 140 147 161 164 171 184 179 166 165 193 238 242 235 226 215 229 296 299 263 251